Temp
21 21 22 22 22 23 23 23 24 24 24 24 24 24 23 22 22 23 23 22 22 22 22 23 23 24 24 24 25 26 27 27 27 29 30 31 32 31 31 31 30 29 29 29 29 30 30 30 30 28 29 30 30 30 30 29 30 30 32 31 28 29 29 28 31 30 29 31 31 30 31 31 31 31 32 32 32 31 31 30 30 30 31 30 30 29 28 26
21 21 22 22 22 22 23 23 23 24 24 24 24 24 23 22 21 22 23 22 22 22 22 22 23 24 24 24 25 25 26 27 28 31 32 31 31 31 31 31 30 30 29 30 31 31 30 30 30 30 30 31 31 31 30 30 30 30 32 31 29 30 30 29 30 30 30 31 31 31 31 31 31 32 32 31 31 31 30 30 30 29 29 29 29 28 27 26
21 21 21 22 22 22 23 23 23 23 23 23 24 24 23 22 21 21 22 22 22 22 22 22 23 23 24 24 25 25 25 26 30 32 31 30 31 31 31 31 31 30 30 31 31 31 31 31 31 31 30 31 32 31 30 30 31 31 31 31 30 30 30 30 30 29 30 30 31 31 31 32 32 32 32 31 31 31 31 30 30 29 29 28 29 28 27 26
20 20 21 21 22 22 23 23 23 23 23 23 23 23 23 23 21 21 22 22 21 22 22 22 22 23 24 24 24 24 24 27 32 32 30 30 30 30 30 31 31 30 30 31 31 31 31 32 32 31 31 32 32 31 31 30 30 31 31 31 30 30 30 30 29 29 30 30 30 30 31 31 32 32 32 31 31 30 31 32 31 30 30 28 28 28 27 27
19 20 20 21 21 22 22 22 23 23 23 23 23 23 23 23 22 21 22 22 21 21 21 22 22 23 24 24 24 24 24 29 32 31 30 30 30 30 30 30 31 30 30 31 31 31 31 32 31 31 32 32 32 32 31 31 30 31 31 31 30 30 30 30 30 29 30 30 30 30 30 31 32 32 32 32 31 30 32 32 32 31 30 29 29 28 28 27
18 19 20 20 21 21 22 22 22 22 22 23 23 23 23 23 22 21 21 21 21 21 21 21 22 23 23 24 24 23 26 30 31 31 30 30 30 30 30 30 30 30 30 31 32 32 32 32 31 31 32 32 32 32 32 31 31 31 31 31 30 30 29 29 30 29 29 30 30 30 30 31 32 32 32 32 32 32 33 33 32 32 31 30 29 29 28 28
16 18 19 20 20 21 21 21 22 22 22 22 22 23 23 23 22 21 21 21 21 21 21 21 22 22 23 24 24 24 29 32 31 30 30 31 31 31 30 29 29 30 31 32 32 32 32 32 31 32 33 32 32 32 32 31 31 31 31 31 30 30 29 29 30 29 29 29 29 30 30 31 31 31 32 32 32 33 32 32 32 32 31 30 30 29 29 28
14 16 18 19 20 20 21 21 21 21 21 21 22 22 23 23 22 21 21 21 21 21 21 21 21 22 23 24 25 28 31 32 30 30 30 30 31 31 30 28 29 30 32 33 33 33 32 32 32 32 32 32 32 32 32 31 31 31 31 31 30 29 29 30 30 29 29 29 29 30 30 30 30 30 31 31 33 33 32 32 32 32 31 30 30 29 29 29
12 14 17 18 19 20 20 21 21 21 21 21 21 22 23 23 22 21 21 21 21 21 21 21 21 22 22 23 26 31 32 30 29 30 30 29 30 30 29 28 29 31 32 33 33 33 32 32 32 32 32 32 32 32 33 32 31 32 31 31 30 30 30 30 29 29 28 29 29 29 29 29 30 30 31 32 33 33 32 31 31 31 30 30 30 29 29 29
12 14 17 18 18 19 19 20 20 20 20 20 21 21 22 23 21 20 20 20 21 21 21 21 22 22 21 23 28 31 31 29 28 29 29 28 29 29 28 29 30 31 33 33 33 33 33 33 33 33 32 32 33 32 33 32 31 32 32 31 30 30 30 30 29 29 28 29 29 29 29 29 30 30 31 32 32 32 32 31 31 30 30 30 29 29 30 29
13 15 17 18 18 18 19 19 19 19 19 19 20 21 22 22 21 20 20 20 20 21 21 21 22 21 21 24 29 31 30 29 28 28 28 27 28 29 29 30 30 32 33 33 33 33 33 33 33 33 32 32 33 33 33 32 32 32 32 31 30 30 30 30 30 29 29 29 29 29 29 29 29 29 31 32 32 32 31 31 30 30 30 30 29 29 30 30
14 16 17 17 18 18 19 19 18 18 19 19 20 21 21 21 21 20 20 20 20 21 21 21 22 21 22 26 29 31 30 29 28 28 28 28 29 29 30 30 31 32 33 33 33 33 33 33 33 32 33 33 33 33 32 32 32 32 31 31 31 31 30 30 30 29 29 29 29 29 28 29 29 29 31 32 32 32 31 31 30 30 30 30 29 29 29 30
16 16 17 17 18 19 19 19 18 18 19 19 20 20 20 20 20 20 20 20 20 21 21 21 21 20 22 28 31 30 29 28 29 29 28 28 29 29 29 30 31 31 32 33 33 33 32 32 32 32 33 33 33 33 32 33 32 32 31 31 32 30 29 30 30 29 30 29 29 28 26 27 31 31 31 32 32 32 31 31 31 30 30 30 30 29 29 30
16 16 17 18 18 18 18 18 18 19 19 19 19 20 20 20 20 20 20 20 21 21 21 21 21 20 23 30 31 29 29 29 29 30 29 29 30 29 29 30 30 31 31 32 32 32 32 33 32 33 33 33 33 33 33 33 32 33 31 31 32 28 27 31 30 29 30 28 30 29 25 26 31 31 31 32 31 31 31 31 31 30 31 30 30 29 29 29
16 16 17 17 18 18 18 18 18 19 19 19 19 20 20 20 20 20 20 20 21 21 20 20 20 21 26 31 30 29 29 29 30 31 30 30 31 31 30 30 30 31 31 31 32 32 32 32 33 33 33 33 33 33 33 33 33 33 29 27 31 28 28 32 30 30 30 29 30 28 25 27 30 31 31 31 31 31 31 31 31 31 31 30 30 30 29 29
16 16 17 17 17 18 18 18 19 19 19 19 20 20 20 20 20 20 20 20 20 20 20 21 21 22 28 31 30 29 30 31 31 31 30 31 32 32 31 31 31 31 31 31 31 32 32 33 33 33 33 33 33 33 32 30 30 33 29 25 27 28 28 31 30 31 31 30 30 28 27 29 31 31 31 31 31 31 31 31 31 31 31 31 30 30 30 30
16 16 17 17 18 18 18 19 19 19 19 20 20 20 20 20 20 19 20 20 20 19 19 21 23 24 28 31 30 30 31 31 31 30 30 30 31 32 32 32 33 32 32 32 31 32 33 33 33 33 33 33 34 33 28 24 24 29 30 27 28 29 28 28 29 31 31 30 30 30 30 31 32 32 31 31 31 31 31 31 31 31 31 31 30 30 30 30
16 17 18 18 18 18 19 19 19 20 20 20 20 20 20 20 20 19 19 19 19 19 20 21 23 25 28 31 31 31 32 31 30 30 30 30 31 32 33 33 34 33 33 32 32 33 33 33 34 33 33 33 34 32 26 23 25 26 27 26 27 29 29 28 30 31 31 31 31 31 30 31 33 32 31 31 31 31 31 31 31 31 31 30 31 31 31 30
17 17 18 18 18 18 19 19 20 20 20 20 20 20 19 19 19 19 20 20 22 24 26 26 26 28 29 31 32 31 31 30 30 30 31 31 31 32 33 33 33 33 32 33 32 33 33 33 32 31 31 33 34 33 29 29 30 29 29 28 26 27 28 31 32 32 32 31 31 32 31 32 34 33 32 31 31 31 31 31 31 31 31 31 31 31 31 31
17 18 18 18 18 19 19 20 20 20 20 19 18 19 21 23 24 24 23 23 26 29 29 29 30 30 31 31 31 31 30 30 31 32 32 31 32 33 33 33 33 33 32 33 33 33 33 32 31 31 32 34 34 33 33 33 33 32 31 29 28 27 28 32 34 32 32 31 32 34 33 33 34 34 33 32 31 31 31 31 30 30 31 31 31 31 31 31
18 18 18 18 19 19 20 20 20 20 21 20 17 21 26 28 28 28 27 27 28 29 29 29 29 29 30 31 31 31 31 31 32 33 31 31 33 33 33 33 32 32 33 33 33 33 33 30 31 33 34 34 33 33 33 33 33 32 31 29 29 28 29 33 34 31 31 30 31 34 32 33 34 34 34 33 32 31 31 31 30 30 31 31 31 31 31 31
18 18 18 18 19 20 20 20 20 20 21 20 19 24 28 27 26 26 27 30 30 28 28 28 28 29 30 30 30 30 31 32 33 32 31 31 33 33 33 33 32 33 33 33 32 32 30 30 32 34 34 33 33 33 33 33 33 32 32 29 27 29 31 32 33 32 31 30 31 33 32 32 35 34 34 34 32 32 32 32 32 31 31 31 31 31 31 31
18 19 19 19 19 19 20 20 20 20 20 20 22 27 27 25 24 24 25 30 30 29 29 29 29 30 31 31 30 29 31 33 33 32 32 32 33 33 33 33 32 33 33 32 32 29 28 31 34 34 33 33 33 33 33 32 33 33 32 28 26 30 30 27 30 32 31 30 31 32 31 32 35 34 34 34 33 33 33 33 33 32 31 31 31 32 32 31
19 19 19 19 19 19 20 20 19 20 20 21 23 26 25 23 24 24 26 31 32 30 30 30 30 31 32 31 30 30 33 33 33 33 32 32 34 33 33 33 33 33 33 33 33 30 30 33 35 33 33 33 32 33 33 31 31 32 33 30 28 31 31 29 32 33 32 31 31 31 27 29 34 34 34 34 33 32 32 32 33 32 32 32 32 32 32 32
19 19 19 19 19 19 19 19 20 20 21 22 24 25 24 23 24 24 27 31 31 31 31 30 30 31 31 31 30 32 33 33 34 34 33 33 34 33 33 33 33 33 33 33 32 32 32 34 34 33 33 33 32 32 33 32 29 29 33 34 32 33 33 33 34 32 28 26 30 30 24 25 32 34 35 34 32 32 32 32 32 32 32 32 32 32 32 32
19 19 20 20 20 20 19 21 22 20 22 25 25 25 24 24 24 24 27 30 29 30 32 30 31 31 31 31 31 32 32 32 34 33 33 34 34 33 33 33 33 33 33 33 33 32 33 34 33 33 33 33 33 32 33 33 28 26 32 35 35 35 33 33 33 29 24 24 31 32 25 23 28 32 35 34 32 32 31 31 32 32 32 32 32 32 31 32
20 20 20 20 20 19 20 22 22 22 25 26 25 25 24 25 25 25 27 27 25 30 33 32 31 31 31 32 33 31 30 31 33 32 33 33 33 34 33 33 33 32 33 33 29 30 34 33 33 33 33 33 32 31 34 35 29 27 34 36 34 35 33 33 32 28 27 28 30 32 29 24 23 29 35 34 33 33 32 31 32 32 33 32 32 32 32 32
20 20 20 20 20 19 20 21 21 25 27 25 25 25 25 25 25 27 26 23 25 31 33 32 31 31 32 32 32 32 31 32 32 32 33 33 33 33 32 33 34 33 34 31 26 30 34 33 33 33 32 32 32 33 35 35 31 31 35 35 34 34 34 34 32 29 29 28 24 28 29 24 22 28 34 34 33 33 33 33 32 32 33 33 33 33 33 32
21 21 21 21 21 20 21 20 22 26 26 25 26 25 25 25 26 29 27 23 27 33 32 32 31 31 32 32 32 33 33 33 33 32 33 32 33 33 33 33 34 33 33 32 30 32 34 33 33 33 32 32 33 35 35 34 33 34 35 34 34 35 34 34 32 29 28 25 22 25 28 24 22 27 31 32 31 33 36 35 34 33 33 33 33 33 33 33
21 21 21 21 20 20 20 21 22 25 25 25 26 25 25 26 27 26 24 24 29 31 32 33 32 32 33 33 32 33 33 33 33 33 33 33 33 33 33 33 33 33 34 33 33 34 34 33 33 33 33 34 34 34 35 34 34 35 34 34 34 34 34 33 31 28 25 23 23 25 27 25 22 25 29 31 32 35 37 37 36 35 34 33 34 34 34 33
22 22 21 21 21 20 22 24 24 24 25 25 25 25 26 29 29 24 22 27 29 30 32 33 32 33 33 33 33 33 33 33 33 33 33 33 33 33 33 32 32 32 32 32 32 34 34 33 33 33 33 33 34 34 34 35 34 34 34 33 29 28 29 27 26 26 23 22 24 26 28 26 22 24 31 35 36 37 37 37 37 36 35 34 34 34 35 34
22 22 22 22 22 22 24 25 25 24 25 25 25 27 28 28 27 24 25 28 27 29 32 32 32 33 32 33 33 32 33 33 32 33 33 33 33 33 32 32 32 28 25 27 30 31 33 34 34 33 33 33 33 32 33 34 34 34 33 29 25 23 24 23 23 23 22 22 25 28 28 25 23 28 34 36 37 37 37 37 36 36 36 35 34 34 35 34
23 23 22 22 23 23 24 25 25 24 26 25 26 29 29 25 23 24 28 28 27 30 33 31 32 33 32 32 32 32 32 32 32 32 33 33 33 33 32 32 33 29 26 27 27 26 29 33 34 33 33 33 33 31 29 30 33 33 30 26 23 22 22 22 22 23 23 23 26 28 27 24 24 30 35 36 37 37 36 36 36 35 34 34 34 34 34 35
24 23 23 23 23 24 24 25 25 25 25 26 28 30 28 23 24 26 29 30 30 31 32 31 32 32 32 32 31 32 32 31 32 32 32 33 32 31 31 31 32 32 31 28 26 25 24 26 31 32 32 33 34 33 30 31 32 33 34 31 25 23 23 22 22 22 22 23 24 26 26 23 23 29 36 37 36 36 35 35 35 34 33 33 34 34 34 34
24 24 23 23 23 24 25 24 24 24 25 27 30 29 25 23 25 28 29 31 32 32 32 32 32 32 31 32 32 32 31 30 32 33 32 32 31 31 32 31 31 33 31 27 26 27 23 24 31 33 32 33 33 33 34 32 30 32 35 31 26 27 26 23 23 23 23 23 23 24 24 26 29 34 37 37 35 35 34 34 34 33 32 32 33 33 33 34
23 23 22 22 23 24 25 25 25 24 25 29 29 27 26 26 28 30 30 31 32 32 32 31 31 30 28 30 32 32 31 31 32 32 31 31 31 30 31 31 31 31 31 28 27 27 23 25 33 33 32 34 33 33 34 31 29 31 31 27 29 33 31 24 22 24 23 22 23 24 24 28 31 33 36 37 35 34 33 33 33 33 32 32 32 33 33 33
22 23 24 24 23 24 25 25 25 24 26 30 29 26 29 30 30 31 31 31 31 32 31 28 28 28 26 27 30 31 32 31 31 30 29 29 29 29 30 31 30 31 31 30 29 29 25 25 32 34 31 33 33 33 34 33 32 30 27 28 32 33 31 26 22 23 23 22 23 23 23 24 24 27 34 36 34 32 32 32 33 33 33 32 33 32 32 32
23 25 26 26 24 24 25 25 24 25 28 31 29 28 31 31 31 31 31 31 31 32 31 27 27 29 27 26 27 31 31 29 30 30 28 28 28 28 30 30 30 31 31 30 29 31 28 24 29 34 32 32 35 33 31 33 34 32 30 32 31 26 25 25 23 22 22 22 23 23 23 24 23 25 30 32 32 31 31 31 32 33 33 33 33 32 31 31
24 27 28 26 24 25 26 24 25 27 29 30 29 29 30 31 31 31 30 31 31 31 31 29 29 29 29 28 28 31 30 28 30 29 27 28 27 28 30 29 30 31 31 31 31 31 31 25 25 32 33 32 33 31 28 29 32 33 32 33 32 27 25 25 24 23 22 22 22 23 23 24 25 28 29 30 31 31 30 31 31 32 33 32 32 33 31 31
27 29 28 25 24 25 24 24 27 29 30 31 31 31 31 31 30 30 30 30 31 31 31 31 30 29 29 30 29 30 30 30 30 29 28 29 28 27 29 29 29 30 30 31 31 30 31 27 23 29 33 30 29 30 29 29 30 30 28 28 29 29 28 27 26 25 23 22 22 22 22 23 26 30 30 30 30 30 30 30 31 32 32 32 31 32 31 31
30 31 28 24 24 24 24 26 29 31 31 31 31 31 31 31 31 30 30 30 30 30 31 31 31 30 30 30 29 30 30 30 30 29 29 29 28 27 28 28 28 29 30 31 31 30 29 27 24 25 27 26 28 33 33 31 31 30 28 27 28 27 26 24 23 24 25 23 22 23 22 23 28 31 30 30 30 29 29 30 30 31 32 31 31 30 30 30
31 30 27 24 24 23 25 29 31 31 32 31 31 31 30 30 31 30 30 31 31 30 31 30 30 30 30 29 30 30 30 29 29 29 29 29 29 28 28 28 28 29 29 30 31 30 29 28 25 23 26 28 30 33 32 31 32 31 30 31 31 29 26 22 21 23 24 23 24 23 22 24 29 31 30 30 30 29 29 29 30 31 31 31 30 29 29 29
31 29 26 24 23 24 27 31 31 31 31 30 30 30 30 30 30 30 30 30 30 30 30 30 29 29 29 29 29 29 29 28 28 29 29 29 29 28 28 28 28 29 30 30 30 29 28 28 24 23 26 30 31 33 32 32 31 30 30 31 31 29 28 26 25 24 23 23 23 22 21 23 28 30 30 31 30 30 29 29 29 30 31 31 30 29 28 29
31 29 27 25 23 25 29 31 31 31 30 30 30 30 30 30 30 30 30 29 30 30 30 29 29 29 29 29 29 29 28 27 27 28 29 28 28 28 28 28 28 29 30 29 29 28 27 26 24 22 23 25 26 28 28 29 30 29 30 31 30 30 30 28 27 25 23 22 22 22 21 23 27 29 29 30 31 30 29 29 29 30 30 30 30 29 28 28
31 30 30 27 25 27 30 31 31 31 30 30 30 30 29 29 28 29 30 29 29 30 29 29 29 29 29 28 28 29 28 27 27 28 28 28 28 28 28 28 28 29 29 27 28 28 27 27 25 22 21 22 22 23 23 25 27 28 29 30 30 30 29 26 24 22 21 22 22 21 21 23 27 29 28 29 30 29 29 29 28 28 29 29 29 29 28 28
31 30 30 30 30 30 30 30 31 31 31 30 30 29 30 29 28 28 29 28 29 29 29 28 28 28 28 28 28 28 28 28 27 27 28 28 28 28 28 28 28 28 27 26 27 29 28 27 27 24 22 23 23 24 27 27 26 25 26 28 29 29 29 27 23 21 22 22 21 21 22 23 26 28 28 28 29 28 29 29 27 27 27 28 28 28 28 28
31 31 30 30 30 31 30 31 31 31 31 30 29 29 29 29 28 28 28 28 28 28 28 28 28 28 28 28 28 27 27 28 27 27 27 28 28 28 28 28 28 27 26 27 28 29 27 25 27 26 25 26 27 27 29 29 26 25 26 27 28 29 28 26 23 22 23 21 20 22 24 23 24 27 28 28 28 28 28 28 27 26 26 27 28 28 27 27
29 29 29 28 29 30 30 30 30 30 30 30 29 28 29 29 29 28 28 28 28 28 28 27 27 28 27 27 27 26 26 26 26 26 27 26 27 28 28 28 28 27 27 28 29 29 26 25 27 27 26 28 29 29 29 28 27 27 27 26 27 28 27 25 24 25 24 22 21 23 24 23 24 26 27 27 28 28 28 27 27 26 26 26 26 26 26 27
29 29 28 27 28 29 29 28 30 30 29 29 29 28 29 29 28 28 28 28 28 28 28 27 27 27 27 27 27 26 25 25 24 26 26 26 26 27 27 27 28 28 28 28 28 28 26 25 27 28 25 26 29 29 29 28 27 27 27 27 27 27 26 24 23 24 23 23 24 24 23 23 23 25 26 26 27 28 28 28 27 26 25 25 24 24 25 26
27 27 27 28 29 28 28 29 29 30 29 28 28 28 28 28 28 28 28 27 27 27 27 27 27 27 27 27 26 26 26 25 25 25 26 25 26 26 26 26 27 28 28 28 28 28 25 25 28 27 24 24 28 29 28 28 27 26 26 26 26 26 25 23 22 22 22 22 23 23 22 22 22 25 26 26 26 27 27 27 26 24 24 24 24 23 24 26
23 22 23 27 29 27 28 29 29 30 29 29 28 28 27 28 28 28 27 27 27 27 27 27 27 27 27 26 26 26 26 26 26 26 26 26 26 26 26 26 26 26 27 27 27 27 26 26 27 26 22 23 27 28 27 28 27 25 24 24 24 24 23 22 21 21 21 21 21 22 22 21 22 24 26 25 25 25 26 26 25 24 23 24 24 24 25 26
21 22 22 26 28 26 27 29 29 29 29 28 28 27 27 28 28 27 27 26 27 27 27 27 27 27 27 27 26 26 26 26 26 26 27 27 27 27 27 26 26 26 26 27 26 27 27 26 26 25 22 22 26 27 26 26 24 22 22 23 23 23 23 22 22 21 21 21 21 21 22 22 23 24 24 24 24 24 25 25 24 23 23 24 24 26 27 27
Height
817 816 815 814 814 813 812 811 811 810 809 809 808 808 807 807 806 806 806 805 805 804 803 803 801 801 800 799 797 796 794 793 792 791 790 788 788 789 789 790 790 790 791 792 793 792 791 792 792 792 791 790 791 792 792 791 789 792 799 804 805 806 811 812 807 808 810 806 802 802 801 805 808 801 795 795 799 802 804 805 803 802 801 802 804 806 810 816
817 816 815 814 813 812 811 811 810 809 809 808 807 807 807 806 806 806 805 804 804 804 803 802 801 801 800 799 798 796 794 793 791 789 787 787 787 789 789 790 790 791 791 792 792 790 792 793 791 790 790 792 792 792 795 792 791 798 800 802 807 808 807 805 804 804 804 804 803 801 800 801 803 800 796 803 807 804 809 809 806 807 807 805 806 809 813 815
816 815 814 814 813 812 811 810 809 809 808 807 807 806 806 806 805 805 805 804 803 803 802 802 801 800 800 799 797 797 795 792 791 788 785 786 786 787 788 790 790 791 791 792 791 790 792 791 789 790 793 795 793 793 798 795 794 798 799 806 809 806 803 802 803 804 802 802 803 802 800 800 799 795 797 805 806 806 809 809 809 812 810 809 808 809 814 816
816 815 814 813 812 811 810 809 809 808 807 807 806 805 805 805 805 805 804 804 803 803 802 802 801 800 800 798 798 797 794 794 791 785 785 785 785 786 787 789 790 791 792 791 791 791 791 789 789 790 794 797 794 794 799 797 797 798 800 809 808 803 804 803 802 803 801 801 803 804 803 802 797 793 798 803 808 812 806 801 803 806 807 808 808 809 813 816
815 814 813 812 811 810 809 809 808 807 806 806 805 805 804 804 804 804 804 803 802 802 802 802 801 800 800 798 799 796 796 801 793 783 786 785 784 785 786 789 790 791 792 792 791 791 790 789 790 791 794 798 796 797 801 796 796 801 802 804 803 802 807 804 800 802 800 800 802 804 806 802 795 795 798 801 809 810 799 794 795 797 801 804 806 808 812 814
814 813 812 811 810 810 809 808 807 806 806 805 805 804 803 803 803 803 803 803 802 802 802 802 801 800 800 798 798 796 799 803 790 783 786 783 784 785 785 789 789 792 792 792 791 790 791 790 793 797 796 798 800 800 802 795 794 804 804 800 801 802 806 804 800 802 800 803 805 805 804 798 799 801 796 798 802 796 789 789 790 793 797 800 803 807 810 812
813 812 812 811 809 809 808 807 806 805 805 804 804 803 803 802 802 802 802 802 802 802 802 801 801 800 799 798 798 796 796 794 785 784 785 782 784 783 785 789 789 792 791 791 790 789 791 792 797 797 797 801 802 800 800 797 796 805 807 802 802 802 804 803 800 802 801 804 805 801 801 801 806 805 797 798 795 788 788 787 788 792 795 799 802 805 808 811
812 811 810 810 809 808 807 806 805 804 804 803 802 802 802 801 801 801 801 802 802 802 802 801 801 800 800 799 797 795 793 789 784 785 784 783 784 783 786 789 790 792 790 790 789 789 791 795 796 795 800 803 800 800 797 799 802 804 806 804 802 803 802 800 800 802 802 803 802 801 805 806 804 802 800 800 792 787 789 788 789 793 796 800 802 804 807 810
811 810 809 809 808 807 806 805 804 803 802 802 801 801 800 800 800 801 801 801 801 802 801 801 802 800 801 799 797 797 792 787 786 785 784 784 784 784 787 789 791 791 790 790 788 790 792 795 795 794 801 800 797 799 796 802 809 802 802 803 803 804 801 800 802 804 804 803 802 805 809 806 800 800 803 797 790 788 788 791 792 794 798 800 802 804 806 809
810 809 808 807 806 805 805 804 803 802 801 801 800 800 799 799 800 800 801 801 801 801 801 802 801 800 801 799 798 799 791 786 788 786 784 785 785 786 788 789 791 790 790 790 789 790 790 793 792 789 795 797 796 798 796 801 804 797 798 801 802 803 800 800 803 803 804 803 803 808 810 806 799 803 807 795 787 788 790 794 794 796 800 800 801 803 805 808
809 808 807 806 805 804 803 802 802 801 800 800 799 799 799 799 799 800 800 801 801 801 801 801 801 801 801 799 800 797 788 787 789 787 786 787 787 789 789 790 790 791 790 790 791 790 790 791 788 789 796 797 796 797 796 796 796 795 797 802 801 801 801 800 803 802 803 804 802 804 809 805 802 806 805 793 787 788 792 796 795 797 799 799 802 803 804 807
808 807 806 805 804 803 802 801 800 800 799 799 799 798 798 798 799 800 800 800 800 801 801 801 801 801 801 799 797 791 786 788 788 788 789 788 789 790 789 791 790 791 791 790 791 790 791 790 789 796 798 795 798 802 799 791 793 796 797 805 803 801 805 802 802 802 802 805 799 802 812 810 806 805 797 789 787 788 792 797 796 798 798 799 801 803 804 805
806 805 804 803 803 802 801 800 799 799 798 798 798 797 798 798 799 799 799 800 800 800 800 801 801 801 802 798 790 786 787 788 787 788 789 789 789 790 790 791 791 792 792 790 791 791 793 791 791 795 792 795 801 799 795 789 793 798 799 805 802 806 813 802 800 801 802 804 796 805 819 812 803 798 791 787 787 790 795 797 797 797 797 798 800 802 804 804
805 804 803 802 801 801 800 799 799 798 798 797 797 797 798 798 799 799 799 800 800 800 801 801 801 802 802 795 786 786 787 786 787 788 789 789 789 790 791 791 792 793 792 792 792 792 792 791 791 792 790 794 796 792 794 794 796 800 803 805 801 810 814 800 798 802 805 803 794 808 822 815 804 796 790 786 786 791 796 796 796 797 796 797 799 802 803 803
804 803 802 801 800 800 799 798 798 797 797 797 797 797 797 798 799 799 800 800 800 801 800 801 801 801 800 792 784 786 786 785 787 787 788 789 789 790 790 791 792 792 793 793 793 793 792 791 792 795 793 790 791 798 803 801 799 801 811 814 805 808 809 800 799 799 805 804 795 809 823 816 805 796 789 786 787 791 795 795 794 796 795 796 798 799 801 801
803 802 801 800 799 799 798 798 797 797 797 797 797 797 797 798 799 799 800 800 800 801 801 802 801 801 801 792 785 785 785 785 786 787 788 788 788 789 790 792 792 792 793 793 793 792 792 792 792 794 795 794 797 805 808 810 810 804 811 819 812 810 808 804 802 795 797 803 800 809 817 811 801 794 789 786 788 791 794 795 794 795 795 795 797 797 798 799
802 801 800 799 799 798 798 797 797 796 796 796 797 797 798 799 799 800 800 800 801 801 801 802 799 800 798 788 786 787 784 785 786 786 787 788 788 789 789 790 790 791 791 792 793 792 792 793 794 795 795 798 799 805 819 828 824 812 809 813 811 810 809 807 806 797 794 801 804 805 808 806 797 791 789 786 787 791 794 795 793 793 794 794 795 795 796 797
801 800 799 798 798 797 797 796 796 796 796 796 797 798 798 799 800 800 801 801 802 802 803 801 800 805 801 788 787 788 784 785 786 786 787 788 788 789 788 788 788 790 792 794 794 793 795 794 796 802 801 801 801 806 825 831 823 819 816 815 813 809 807 807 805 798 795 801 803 803 805 801 791 788 789 786 785 790 792 792 791 791 792 794 793 793 794 795
800 799 798 797 797 796 796 796 796 796 796 797 798 798 799 800 800 801 802 802 801 801 801 798 797 802 799 789 784 784 784 785 786 786 786 787 788 789 788 788 788 791 797 801 799 795 796 799 804 811 809 804 802 804 814 816 812 815 813 813 817 813 808 803 799 794 793 801 802 800 800 795 789 786 787 786 783 788 790 789 791 790 790 792 793 792 792 794
798 798 797 796 796 795 795 795 795 795 796 797 798 799 799 799 799 800 800 799 796 792 793 791 789 791 790 785 783 784 784 784 785 784 786 786 787 788 788 789 791 795 800 802 801 793 795 808 812 810 806 800 799 800 803 804 804 808 809 810 811 811 809 799 796 793 791 801 798 791 794 791 786 783 781 783 783 787 789 790 792 791 790 790 790 790 790 791
797 797 796 796 795 795 795 795 795 796 796 796 798 798 796 794 797 798 796 794 789 787 789 787 786 788 787 785 784 784 784 785 784 782 786 785 785 791 792 792 800 803 799 798 799 795 800 814 810 800 797 796 797 799 800 803 804 805 806 807 806 808 807 795 794 794 791 801 797 788 793 790 783 780 775 778 783 785 785 787 789 789 789 788 788 789 788 788
797 796 795 796 795 794 794 794 795 796 796 797 797 796 792 792 795 794 793 793 788 785 787 787 787 788 784 784 784 783 786 789 788 784 784 785 786 793 794 795 804 803 797 799 804 805 810 812 801 792 792 795 798 798 801 804 804 805 803 805 809 806 801 794 793 794 792 800 797 790 794 789 778 775 772 773 778 778 776 778 782 784 787 787 786 786 786 787
797 795 795 795 794 795 794 794 796 796 796 797 796 794 793 793 793 792 793 793 791 788 786 787 788 787 784 784 783 784 788 789 790 787 783 785 788 790 794 798 803 801 800 803 806 811 813 804 791 789 792 797 801 799 801 804 802 802 800 803 808 800 800 803 798 795 793 796 796 794 794 786 774 772 771 770 771 772 772 772 774 776 781 783 781 781 783 785
796 795 795 795 794 795 794 795 796 796 797 796 796 794 793 794 792 793 793 790 791 789 784 784 784 784 785 783 782 784 787 785 786 786 781 785 788 789 793 796 800 803 802 801 804 809 807 794 787 792 796 799 804 801 801 806 803 798 795 799 802 796 796 799 793 791 791 793 794 796 799 788 775 777 775 768 769 772 772 771 772 773 773 776 777 777 778 780
795 795 795 794 795 795 795 797 796 796 797 795 796 794 793 793 791 793 794 792 796 791 784 784 783 783 781 781 783 782 784 784 782 781 779 781 786 791 794 792 797 804 802 800 804 807 801 789 788 797 799 799 804 804 800 803 805 800 792 789 793 794 794 792 789 792 801 803 794 795 812 802 777 776 776 771 774 775 773 773 773 772 771 773 776 776 776 776
794 794 795 795 795 796 796 796 795 797 796 794 795 793 793 793 790 793 795 796 802 797 790 789 787 786 782 782 782 779 789 791 779 777 780 781 781 786 795 794 794 801 800 799 801 801 796 789 791 798 799 799 803 803 796 796 806 806 789 782 787 790 792 792 790 797 810 810 792 789 811 812 788 777 773 772 777 776 774 774 771 770 770 770 771 773 774 774
794 794 794 795 795 796 795 794 796 796 794 794 794 792 793 791 790 794 796 805 811 799 792 790 788 787 784 782 779 785 802 796 780 780 779 782 781 782 795 798 796 799 795 799 805 800 794 794 796 797 799 801 802 801 791 790 805 803 783 781 788 788 791 792 789 795 800 798 791 785 796 809 801 784 772 771 775 776 775 774 770 767 766 766 765 766 769 770
793 793 794 794 794 795 794 794 796 794 793 793 792 792 792 790 792 794 801 822 818 794 789 790 784 783 781 780 780 787 794 787 790 791 777 780 784 784 797 797 795 798 792 801 812 799 790 797 799 797 800 802 797 792 785 787 801 794 778 781 786 787 790 788 788 791 789 797 804 790 788 809 808 782 770 772 774 774 772 770 769 765 762 762 761 761 762 764
792 793 793 794 794 795 794 795 795 793 793 793 791 792 790 790 794 794 804 822 811 789 787 788 785 785 783 783 785 787 785 784 793 790 777 783 784 783 795 792 791 797 792 797 805 795 789 791 791 794 800 798 789 784 781 788 795 784 778 783 783 784 787 787 790 790 792 808 814 794 788 811 813 785 774 778 777 772 764 759 761 761 758 757 756 756 757 759
791 792 793 793 794 795 795 795 793 793 793 792 792 791 790 792 796 805 819 820 805 793 788 785 788 789 787 791 792 789 789 788 787 784 783 785 783 783 788 785 788 795 794 794 797 792 785 784 786 791 794 789 785 783 780 783 785 779 783 787 784 784 786 791 791 791 809 820 807 792 790 807 818 796 775 775 771 763 758 755 754 753 753 754 752 752 752 755
791 792 792 793 794 794 794 793 792 793 792 792 793 790 792 796 797 813 824 809 798 797 790 789 792 788 790 796 796 792 792 791 787 789 791 789 789 790 791 792 793 797 799 796 793 789 785 787 788 786 784 783 786 786 780 778 780 783 788 790 792 793 793 800 798 801 825 826 800 790 788 799 817 801 774 765 758 751 754 754 752 750 750 751 750 747 747 749
790 791 792 792 793 793 792 792 791 793 792 792 792 789 796 805 807 812 812 801 803 803 794 796 795 791 794 795 796 795 794 794 791 791 793 792 794 795 796 799 799 806 809 800 796 794 787 786 786 783 782 782 789 791 783 779 781 787 790 794 806 812 811 818 818 813 820 812 792 787 790 798 803 786 769 764 755 748 749 749 749 749 747 747 747 746 743 744
790 790 791 791 792 792 791 792 792 792 792 792 791 790 798 813 816 809 802 801 807 800 792 796 794 792 796 796 798 797 795 797 794 792 793 793 796 798 799 797 796 807 812 802 803 804 795 786 783 787 787 781 786 793 792 786 783 785 787 795 810 820 827 832 826 819 818 804 788 785 794 802 793 774 764 759 750 746 747 747 747 746 747 746 744 743 742 742
789 789 790 790 790 791 790 791 792 792 792 791 792 796 806 815 812 805 801 801 799 794 793 796 794 794 796 797 800 796 796 801 794 793 796 795 799 801 800 799 797 800 804 804 805 806 812 806 790 790 791 783 784 789 791 790 786 781 777 785 798 805 819 827 822 821 818 803 791 794 802 803 791 773 758 750 749 750 751 749 745 745 745 744 742 741 742 742
789 789 790 789 789 789 789 790 791 791 791 791 794 801 809 812 805 802 802 798 795 796 795 794 795 799 799 798 799 794 797 802 795 794 798 797 801 802 801 803 800 798 803 810 806 802 814 810 788 784 785 783 787 784 782 790 794 783 775 787 795 789 794 806 808 805 804 804 801 799 798 787 773 761 748 746 754 755 754 752 749 748 745 745 746 744 744 743
788 789 789 789 788 788 788 789 790 791 790 792 799 803 803 803 800 798 798 795 796 797 798 798 798 802 804 800 800 797 795 797 797 798 801 801 803 805 805 804 801 800 803 809 807 805 814 806 785 784 785 781 786 784 779 790 796 788 787 794 785 772 780 801 809 798 799 817 809 791 789 780 770 766 751 749 760 761 760 758 754 749 747 747 748 746 745 745
788 788 788 788 788 787 787 788 789 791 789 792 802 803 798 798 796 794 794 794 795 794 800 806 804 805 808 804 802 800 797 797 798 800 803 806 807 808 807 804 801 801 800 804 805 804 813 809 787 785 793 783 778 782 779 779 785 791 796 790 777 775 781 795 815 813 812 825 809 787 790 789 787 785 763 755 768 773 769 763 755 749 748 749 747 747 749 747
787 787 786 787 788 787 787 788 789 788 789 794 804 804 798 796 794 793 793 793 794 795 800 807 806 805 808 807 805 802 800 801 801 801 804 807 810 809 808 806 803 799 797 801 804 801 808 815 795 783 794 787 774 784 788 777 774 783 786 780 783 801 802 797 812 822 823 826 811 792 789 787 789 790 778 773 777 776 771 765 759 754 751 750 747 748 751 750
786 786 787 788 787 787 787 789 787 787 791 797 804 803 797 796 795 792 792 793 794 797 801 803 803 805 805 806 806 804 804 805 802 804 807 808 811 810 806 807 805 800 797 798 803 801 803 818 812 787 785 789 783 789 796 787 778 777 780 779 784 798 803 800 803 809 818 825 818 806 796 789 787 786 785 785 779 775 774 769 764 757 753 752 750 749 751 751
783 784 789 789 787 788 788 788 787 790 795 796 796 798 796 796 796 792 791 793 795 798 801 802 803 806 806 806 805 804 805 806 804 806 808 807 811 812 807 808 808 803 800 797 801 802 800 815 822 797 783 793 795 788 789 791 789 787 790 793 791 790 791 796 797 794 802 815 817 817 810 797 788 782 781 782 778 776 775 770 766 759 754 754 753 752 752 751
778 785 792 789 788 789 788 789 790 790 793 794 794 797 796 795 796 794 792 791 794 796 796 799 802 804 806 807 807 806 806 807 807 807 808 806 809 814 810 808 809 806 804 801 800 804 805 811 819 810 799 800 795 781 779 788 790 791 794 793 794 795 798 812 815 794 789 800 806 810 811 800 786 778 777 778 776 775 773 770 767 760 756 756 755 755 754 752
779 788 792 788 788 789 787 791 791 788 791 795 795 795 796 795 796 796 794 792 794 796 794 799 803 804 807 808 807 808 808 809 810 809 809 808 808 811 809 806 806 805 805 806 801 802 806 809 815 814 805 798 789 778 778 785 785 787 792 788 788 793 797 815 823 803 792 795 792 796 804 797 783 775 773 774 773 773 771 770 768 761 756 755 756 758 757 754
781 789 791 788 788 788 789 795 794 791 794 795 793 794 795 796 797 797 797 796 798 799 798 803 806 806 808 808 807 810 809 811 813 810 810 810 808 809 808 805 805 804 804 806 804 803 807 811 817 816 803 791 784 777 777 782 785 790 790 784 788 794 792 798 805 804 806 803 801 816 820 803 787 777 772 770 768 770 771 769 768 763 755 755 758 760 760 757
781 785 786 787 788 787 790 796 796 797 798 796 797 799 796 797 799 799 800 801 800 801 803 807 807 806 808 807 808 810 812 815 815 811 811 813 810 808 806 805 806 804 805 807 806 808 811 814 820 825 819 807 796 792 792 791 790 793 792 788 790 792 792 796 798 808 818 808 808 828 826 802 788 780 775 771 767 769 771 768 767 763 758 760 761 761 762 760
781 785 785 784 785 786 789 789 789 796 800 799 801 802 800 802 803 800 801 803 801 801 805 808 806 805 807 808 810 811 811 814 815 813 812 811 809 808 806 806 807 804 806 808 805 807 812 814 817 828 834 829 819 814 811 806 799 796 796 795 794 793 796 802 810 824 830 816 813 829 822 800 789 783 780 777 771 771 771 768 768 764 761 764 764 763 763 762
782 789 790 786 782 782 786 785 785 792 797 800 804 804 803 806 806 800 800 804 803 802 805 807 806 807 809 810 813 815 813 812 813 814 814 812 811 810 806 806 807 805 807 809 805 805 811 813 813 820 826 822 817 812 805 804 806 805 803 798 795 795 794 799 814 828 826 820 828 834 821 805 795 787 785 780 775 776 772 769 772 769 765 766 766 765 765 764
782 789 791 791 790 788 789 788 787 792 794 798 805 806 804 807 807 804 803 805 804 804 806 808 807 809 813 813 815 818 817 815 815 816 816 814 811 809 805 804 806 807 808 807 803 805 814 815 809 811 813 808 805 803 798 801 805 806 805 802 798 797 796 803 814 816 815 825 834 826 811 807 802 792 787 783 780 779 775 773 775 772 767 768 767 766 768 767
786 791 789 790 794 795 794 794 792 794 795 797 803 806 806 807 808 808 807 805 805 805 808 812 812 810 813 814 815 819 820 819 819 818 818 817 814 811 808 804 805 806 805 803 801 804 814 815 806 805 809 803 799 799 798 800 802 802 802 803 801 798 798 806 810 807 812 824 824 813 807 809 807 797 790 785 782 780 777 775 773 770 770 771 769 768 772 772
786 790 788 788 793 795 796 796 794 795 798 801 804 807 807 808 810 809 807 808 809 808 808 815 816 812 812 813 815 820 822 822 823 821 819 819 817 815 814 810 806 803 803 804 803 804 813 814 805 805 809 805 799 798 798 799 801 802 801 801 801 798 801 812 819 818 819 817 813 813 813 811 808 800 791 786 781 777 775 774 771 772 775 774 770 772 777 776
788 791 792 790 793 796 796 796 795 797 800 803 806 808 807 808 810 810 808 809 814 812 809 813 816 813 813 815 815 819 820 820 823 821 819 820 819 816 816 815 811 806 805 807 806 806 813 813 805 807 813 808 799 797 798 798 800 804 804 804 805 805 810 820 826 827 827 824 819 819 820 820 812 797 788 787 783 780 780 778 776 777 779 776 775 782 787 781
794 794 793 792 797 801 799 797 797 799 802 803 806 809 809 809 809 809 810 809 810 812 810 811 813 812 813 815 816 816 815 815 818 816 814 816 816 813 814 814 812 812 810 809 808 808 811 811 805 809 818 811 797 797 800 797 797 803 809 814 816 815 817 823 826 828 830 832 830 822 819 823 815 797 789 790 788 788 787 783 781 782 783 781 783 789 788 780
797 795 792 792 800 803 800 798 799 801 804 805 806 808 809 808 806 808 813 811 807 808 809 809 812 813 813 816 816 814 813 812 812 810 808 810 809 808 810 810 810 813 813 810 810 808 808 811 807 809 819 813 797 797 801 800 805 812 815 818 819 816 818 820 820 822 822 825 832 829 819 815 808 798 795 795 795 796 792 786 786 787 784 781 782 784 781 776
Wind_Speed
10 11 11 11 11 12 12 12 12 12 12 12 12 12 12 12 13 12 12 12 12 12 12 12 13 14 14 16 17 18 19 18 15 12 9 10 7 4 4 1 4 10 10 9 9 7 5 3 2 2 3 1 1 2 2 3 3 4 3 2 0 2 3 1 1 2 1 2 5 5 4 4 4 5 4 5 6 6 7 6 4 5 2 3 6 11 17 21
11 11 11 12 12 12 12 12 12 13 13 13 13 12 12 12 12 12 11 11 11 11 11 11 12 13 13 14 15 17 19 16 13 13 10 11 11 6 4 1 5 9 10 8 7 4 2 1 2 3 2 0 1 1 2 2 3 3 3 1 3 4 4 2 2 3 1 2 4 3 4 4 3 5 5 5 7 8 7 7 7 7 6 6 10 14 18 21
11 11 11 12 12 12 12 12 13 13 14 14 13 13 12 12 12 12 11 11 11 10 10 10 11 12 12 13 14 16 16 13 11 7 3 6 9 7 8 5 5 8 8 5 4 2 1 1 2 1 3 1 3 2 1 2 2 3 3 2 5 4 3 4 3 3 2 2 1 3 2 3 3 4 5 5 6 8 6 6 8 8 9 9 12 15 18 21
11 12 12 12 12 12 13 13 13 14 14 14 14 13 13 12 12 12 11 11 10 10 9 9 10 10 11 12 13 14 12 9 5 2 3 4 4 6 10 8 7 9 6 3 3 3 0 0 0 2 3 1 3 1 2 3 3 3 4 4 6 2 1 5 5 3 2 1 1 2 2 3 3 4 5 5 5 6 5 5 6 8 11 12 13 15 18 21
12 12 12 13 13 13 13 14 14 14 15 14 14 14 13 12 12 12 11 10 10 10 8 8 9 9 9 10 11 11 8 5 2 4 4 6 4 5 11 11 10 10 7 5 4 4 2 1 1 3 3 2 3 1 4 5 3 2 3 4 4 2 2 4 4 3 2 1 2 3 2 1 2 4 5 5 6 2 1 3 4 7 12 14 15 16 18 20
12 12 12 13 13 14 14 14 15 15 15 15 15 14 14 13 11 11 11 9 9 9 8 7 8 8 8 9 9 7 6 2 3 4 8 8 4 6 12 13 12 11 8 7 5 5 3 2 3 3 2 3 6 5 5 4 3 2 4 4 3 2 3 2 4 3 2 1 1 1 1 2 2 4 4 6 7 2 4 2 4 9 13 14 16 16 17 19
12 12 12 13 13 14 14 15 15 16 16 16 16 15 14 13 10 10 10 9 8 8 7 6 7 7 7 7 7 5 7 3 5 8 12 6 1 7 14 16 14 12 9 8 6 5 3 3 2 4 3 3 6 7 6 3 1 3 4 4 3 1 2 2 4 4 3 2 1 0 2 4 4 3 2 5 7 1 2 2 6 10 14 15 16 16 17 18
12 12 12 13 14 14 14 15 15 16 16 16 16 15 14 12 9 9 8 7 7 6 6 6 5 6 6 5 5 5 6 3 8 10 10 4 5 10 16 17 14 12 10 9 6 4 2 3 2 4 3 4 6 6 6 2 1 3 5 4 2 1 0 2 3 3 3 2 1 3 3 3 4 4 4 6 5 2 3 4 8 11 14 14 14 15 16 17
12 11 12 13 14 14 15 15 16 16 15 15 15 14 13 10 8 7 7 6 5 5 5 5 4 4 5 4 7 5 1 6 8 7 8 5 7 14 17 14 14 13 10 8 5 4 2 2 4 5 6 4 5 6 7 4 2 5 5 2 0 1 1 2 4 4 3 3 3 4 3 3 4 5 6 6 4 3 5 6 10 12 14 13 13 14 15 16
12 12 12 13 14 14 14 15 15 15 14 14 13 12 11 8 7 6 6 5 4 4 3 3 3 2 3 4 8 3 5 7 7 9 11 7 10 16 13 10 13 12 8 6 5 4 3 4 4 5 6 3 5 5 5 5 5 5 3 1 2 2 2 3 4 5 4 3 4 4 4 4 4 5 5 5 5 5 7 8 10 12 13 13 12 13 14 16
12 12 13 13 14 14 14 14 13 14 13 13 12 11 9 7 5 5 4 3 2 3 2 2 1 1 3 5 7 1 6 5 6 10 10 8 9 11 8 8 11 10 6 4 4 3 3 4 5 5 4 3 7 5 3 6 6 4 3 2 3 3 3 4 5 5 5 4 4 4 5 5 5 6 5 4 6 7 7 9 11 11 11 12 11 12 13 15
13 13 13 13 13 13 13 12 12 12 12 11 10 8 7 5 3 3 3 2 2 2 1 1 1 0 3 7 6 2 2 1 4 5 5 5 5 6 5 7 9 7 5 4 3 3 4 4 5 6 4 6 8 4 4 5 5 3 3 5 3 4 3 4 5 4 5 4 3 3 6 8 10 9 7 6 7 7 8 9 11 11 10 11 11 11 11 14
13 13 13 12 12 12 11 11 11 11 10 9 8 6 5 3 2 2 2 2 1 1 1 1 1 1 4 5 2 2 4 5 6 4 0 2 4 5 4 5 6 5 4 3 2 1 4 4 5 6 5 6 5 4 4 4 3 2 2 5 3 3 3 3 4 5 5 3 4 4 5 3 6 8 8 8 9 9 9 9 10 11 10 10 11 10 11 14
13 12 12 12 11 10 10 10 10 10 9 7 5 4 3 2 2 2 2 2 2 2 1 2 2 2 5 3 1 3 5 3 4 3 3 5 5 5 5 5 5 3 2 2 1 1 3 3 5 6 4 5 5 4 6 4 2 4 3 4 2 1 4 5 4 5 5 4 5 5 4 3 3 7 9 8 10 10 9 10 10 10 10 10 11 11 11 13
12 12 11 11 10 10 10 10 10 9 7 5 4 2 2 3 3 3 3 3 3 2 2 1 2 3 5 3 1 3 3 1 3 3 4 7 6 6 6 6 5 3 2 2 1 1 2 4 5 5 2 2 5 6 5 3 2 3 3 2 2 3 3 6 4 5 3 3 7 6 3 4 3 5 8 8 10 11 9 9 10 10 11 11 11 12 11 13
12 12 11 10 10 10 9 9 9 7 5 3 2 3 4 4 4 4 4 4 4 4 3 1 3 5 5 1 3 1 1 1 3 4 5 6 5 5 8 7 5 4 3 2 2 2 2 4 4 4 4 4 5 4 4 3 2 1 3 3 3 5 3 3 4 5 3 2 8 8 5 4 2 4 8 9 10 11 10 9 11 11 11 11 10 11 11 12
12 11 10 10 9 9 8 8 7 5 3 3 4 5 6 5 6 6 5 5 4 5 2 2 2 5 4 1 2 2 3 2 3 3 4 6 4 6 9 6 4 4 4 4 4 4 4 4 4 3 5 5 3 4 4 3 2 2 3 4 3 5 6 2 2 4 5 4 6 8 7 7 3 4 7 9 11 11 10 10 11 11 11 10 10 11 11 12
12 11 10 9 8 8 7 7 5 2 3 6 7 7 7 7 8 7 6 6 5 3 3 3 3 4 2 3 1 3 3 1 2 1 3 6 5 6 6 3 2 4 5 5 5 6 5 4 4 4 5 5 4 4 4 3 4 5 5 5 5 5 6 4 3 1 4 6 6 7 8 9 7 5 7 9 11 11 11 10 11 11 11 11 10 11 11 12
11 10 9 8 8 7 6 5 2 4 7 9 10 10 10 8 7 5 4 5 4 2 1 4 4 3 2 4 2 3 2 1 2 3 4 6 7 7 5 3 3 4 5 5 7 7 5 4 5 6 6 5 3 3 4 5 7 8 8 7 6 7 5 5 5 2 2 5 6 7 7 8 7 5 8 10 11 11 11 10 9 10 11 11 11 10 11 12
10 9 8 8 7 7 5 3 4 7 11 13 11 8 6 4 3 4 5 7 6 3 3 2 3 4 1 3 2 3 1 2 4 5 6 6 8 8 7 5 5 6 6 4 4 5 4 6 7 7 6 4 3 4 6 8 8 9 9 7 7 7 5 6 4 2 1 5 5 6 8 9 9 6 7 10 11 12 12 12 11 11 11 11 12 11 12 12
9 8 8 7 6 5 3 2 6 10 13 15 9 4 1 2 1 1 2 6 6 5 5 2 3 6 4 3 4 4 1 4 4 6 6 6 9 9 7 6 7 6 5 4 1 2 3 8 8 7 6 5 6 6 7 8 9 9 9 7 7 5 6 7 3 3 3 5 5 5 8 10 9 8 7 10 13 13 14 14 14 14 13 11 12 13 12 11
8 7 6 5 4 2 1 4 8 11 13 13 7 5 3 4 2 3 3 3 4 4 6 4 5 6 5 5 4 3 4 4 6 7 5 7 10 8 6 7 8 4 3 4 4 4 6 9 9 7 6 7 8 7 8 10 9 9 8 7 6 5 6 4 3 4 4 3 5 6 9 10 9 9 8 11 13 13 14 15 14 15 14 13 13 13 12 12
7 5 4 3 2 2 4 6 9 11 13 9 4 3 2 2 2 2 5 2 4 3 4 4 5 4 3 3 3 5 6 3 5 8 8 8 9 6 4 6 6 3 3 5 6 5 5 5 4 3 4 8 10 9 9 9 9 8 7 6 5 5 7 3 3 3 4 4 6 8 9 9 7 6 8 11 13 11 12 15 14 14 15 15 14 13 14 14
6 3 2 2 3 5 6 8 9 10 12 8 6 3 2 5 5 5 5 3 3 4 2 2 2 2 0 1 4 7 4 0 1 7 10 9 6 4 4 4 4 5 4 4 5 7 7 3 2 2 4 7 9 9 9 8 7 8 9 8 7 7 8 6 3 4 5 7 6 7 8 6 3 3 5 8 11 11 11 14 14 15 15 15 15 14 14 15
4 2 1 4 6 6 7 7 6 7 10 8 5 4 5 7 5 6 5 3 4 4 3 3 2 1 2 2 4 4 3 2 1 5 10 9 4 4 2 1 4 3 2 2 5 6 6 2 0 6 7 8 9 8 9 8 6 7 9 7 6 7 8 9 8 6 6 5 4 4 7 3 2 3 3 6 9 11 11 13 15 15 15 15 15 14 15 15
3 1 3 5 6 7 6 4 5 7 7 5 1 3 6 6 4 6 5 3 5 4 3 4 2 3 3 3 4 3 4 3 3 4 8 6 3 2 2 3 3 2 2 2 5 3 2 1 3 7 7 8 9 8 8 7 7 7 4 2 5 8 9 10 9 6 5 5 2 4 6 4 4 6 2 5 7 10 11 14 16 15 15 15 15 15 15 15
2 3 5 6 8 8 3 3 5 7 4 2 1 5 5 3 5 5 4 3 6 1 2 3 1 2 2 0 3 3 2 4 4 5 6 5 4 3 4 3 2 1 1 3 4 2 1 1 2 5 6 7 7 6 6 6 7 7 1 2 7 9 10 11 10 7 5 6 6 6 6 6 5 4 3 5 6 8 11 14 15 15 16 17 16 16 17 17
3 5 6 7 10 7 3 3 4 3 2 4 4 6 2 5 7 4 5 2 4 0 1 3 2 1 1 1 4 5 3 1 2 5 5 6 6 4 5 4 4 2 3 5 3 4 1 3 3 5 6 6 5 4 4 4 8 8 4 5 8 9 10 10 9 7 4 6 7 6 4 5 6 3 4 5 6 6 10 12 14 16 17 18 18 18 18 18
4 6 7 8 10 7 4 4 4 2 3 5 6 3 2 7 5 4 5 1 2 1 1 2 3 3 3 3 4 4 3 3 2 4 6 7 6 4 4 3 5 4 5 7 6 2 1 3 5 6 6 6 6 5 5 6 8 7 6 8 9 8 8 8 8 7 5 6 8 5 3 5 6 5 3 4 4 5 5 6 11 15 17 17 18 18 18 17
5 7 7 8 8 6 5 5 5 3 3 5 5 2 5 6 4 5 4 1 1 2 2 1 2 2 3 6 5 2 3 2 2 4 6 5 6 6 2 1 4 6 5 8 9 7 3 2 3 6 7 7 8 8 8 9 10 8 7 10 11 7 5 6 6 4 5 8 8 5 5 6 6 6 4 3 3 5 5 2 4 10 14 16 16 17 18 16
6 8 9 9 7 7 5 3 6 5 2 5 3 3 6 4 4 6 2 1 1 2 2 2 2 1 2 4 2 3 3 3 3 5 6 4 6 7 4 4 4 6 6 7 6 6 6 6 3 2 5 6 7 8 8 8 9 8 7 9 9 6 5 6 5 3 6 8 4 3 6 8 7 5 4 5 7 7 5 4 4 3 8 13 14 15 16 17
7 8 10 9 7 8 5 1 6 4 3 4 2 5 5 4 5 3 1 2 2 2 1 2 2 2 2 1 1 2 2 3 3 4 4 3 5 3 2 3 2 4 5 2 1 3 5 4 2 2 3 3 6 6 6 7 7 7 8 8 8 7 6 7 6 5 7 7 3 3 7 7 7 5 5 9 10 6 5 7 8 7 4 7 11 13 14 15
7 8 10 10 8 9 7 3 4 4 3 4 5 5 5 6 5 0 2 3 0 3 1 1 2 2 2 3 3 3 2 2 2 4 2 3 3 2 1 2 3 5 4 4 4 5 3 4 5 5 6 3 6 6 3 3 4 7 7 7 7 7 8 8 7 6 8 7 3 3 6 7 7 4 5 10 9 8 9 8 8 7 6 5 7 10 12 14
7 8 8 9 10 9 8 6 6 4 3 5 6 4 6 6 2 2 2 3 3 3 2 1 2 2 1 1 3 1 1 2 2 4 4 5 5 3 3 3 1 4 5 6 6 5 6 2 4 2 2 1 3 5 6 7 7 6 5 7 8 7 8 8 7 6 7 7 4 2 4 7 5 1 2 6 8 10 9 10 9 5 4 4 5 7 10 13
7 7 7 8 9 8 7 9 7 5 5 6 5 5 6 3 3 2 2 4 3 3 3 1 4 4 3 3 3 1 2 2 3 3 3 3 3 1 1 3 3 3 4 5 3 2 8 5 3 3 3 2 4 3 4 8 8 4 4 7 9 7 8 8 8 8 8 7 5 4 5 7 5 6 6 3 8 9 11 13 10 6 5 2 3 6 8 10
5 3 4 4 4 4 6 9 9 7 6 5 5 5 2 2 2 2 2 2 1 2 3 4 4 4 3 3 3 3 1 1 2 3 2 1 1 3 2 3 4 4 4 4 3 2 6 3 5 3 1 1 3 4 3 6 6 3 3 6 5 5 8 8 8 9 8 8 7 6 7 7 6 8 6 2 9 11 13 13 9 7 6 2 2 4 7 8
4 3 2 1 1 3 5 8 11 9 6 6 4 1 2 3 3 3 2 1 0 0 4 5 2 2 3 2 3 3 1 2 3 3 2 3 2 3 2 2 3 4 5 4 4 1 4 6 1 2 3 2 1 5 6 7 6 6 5 5 6 4 6 6 6 8 8 8 8 8 9 8 6 5 3 5 11 11 11 12 9 9 6 2 3 3 4 6
4 5 3 5 1 5 6 11 13 8 6 5 1 2 2 2 3 3 2 1 0 2 5 4 0 1 3 3 1 3 1 2 3 2 2 3 2 3 2 1 3 3 4 4 4 2 2 9 4 3 3 2 2 6 8 8 8 7 6 5 5 6 6 5 6 7 8 9 8 9 10 7 5 3 5 8 11 12 12 12 11 10 8 5 4 4 4 5
5 6 3 6 2 7 10 12 9 5 5 4 3 3 2 3 5 3 1 1 1 2 4 2 1 2 2 2 1 2 1 3 0 1 2 2 1 3 3 2 1 3 4 4 5 2 2 6 3 3 2 4 5 7 8 6 8 6 5 4 5 5 6 6 6 7 8 9 8 9 9 5 0 3 6 9 10 11 12 12 11 10 10 7 6 5 3 4
6 4 3 5 3 12 10 7 6 5 4 2 2 4 4 5 5 4 2 1 2 2 2 0 1 3 2 1 2 0 1 2 2 2 1 1 2 2 4 4 4 4 3 4 4 3 2 3 5 5 3 4 7 6 6 6 4 4 5 6 6 5 6 6 7 7 7 8 7 8 8 2 3 4 5 7 8 9 11 11 10 10 11 10 9 8 4 2
6 3 4 2 8 11 4 5 4 3 3 1 4 5 4 3 5 6 4 1 1 3 3 1 0 1 1 1 1 0 2 2 2 3 1 1 2 1 4 5 6 5 4 5 4 1 3 3 5 8 6 7 8 5 5 6 8 7 7 7 7 7 7 7 8 8 7 8 7 8 8 1 4 3 4 5 6 7 10 10 9 10 11 12 11 10 8 5
5 2 4 3 10 7 6 4 2 2 2 3 4 5 3 2 3 5 4 3 3 2 2 2 2 2 1 1 1 1 2 2 1 3 2 0 1 2 5 5 5 4 4 6 2 2 3 5 6 7 7 8 10 9 6 6 8 9 8 8 7 7 7 8 8 6 6 8 7 8 9 2 4 4 5 5 5 6 8 9 9 9 12 13 13 12 11 8
1 3 3 4 9 6 7 3 4 2 2 4 4 5 4 2 3 4 3 2 2 1 1 2 2 2 2 1 1 1 2 1 2 2 1 1 2 4 5 6 6 4 4 5 1 2 2 4 5 7 7 8 11 10 6 5 7 9 8 7 6 7 8 7 6 4 6 8 5 6 7 2 3 4 6 4 4 4 7 9 9 9 12 13 13 12 11 10
3 3 3 4 7 7 6 2 4 4 5 5 6 6 5 4 4 3 3 3 3 1 1 3 2 2 2 2 1 1 2 2 2 0 1 2 2 4 3 5 6 4 2 3 2 2 3 3 3 6 6 6 7 7 4 4 5 5 4 5 6 8 9 7 4 3 5 7 6 7 6 1 3 4 7 6 6 6 7 9 10 10 12 12 11 10 10 9
3 3 4 4 6 6 3 2 1 4 7 7 7 7 5 6 5 5 6 6 4 2 1 2 2 1 1 0 1 1 1 3 2 1 1 2 2 3 2 4 5 3 2 4 4 4 4 4 4 5 6 5 4 3 2 2 3 4 5 7 7 8 8 5 2 3 5 4 3 7 6 1 2 5 9 9 10 9 9 10 10 10 13 12 10 11 10 8
3 2 3 4 4 3 0 1 1 3 6 6 5 4 3 5 5 4 4 4 4 4 2 2 1 1 1 2 3 2 0 2 2 1 2 2 0 1 3 4 3 2 4 3 4 5 5 5 6 7 7 7 7 7 5 5 6 7 8 9 8 8 8 4 2 3 3 2 2 7 10 6 2 6 11 12 13 12 11 12 11 10 11 11 10 12 13 9
2 1 1 2 3 3 3 3 2 2 3 3 2 2 3 5 6 3 2 2 3 3 2 2 0 1 1 1 3 1 1 1 2 2 3 3 3 2 3 3 2 2 5 5 5 4 6 6 7 8 9 9 9 9 8 8 9 9 10 11 10 9 7 5 5 4 3 2 2 7 10 9 5 8 12 13 13 12 11 11 10 8 9 8 8 13 15 11
1 1 2 2 1 2 3 3 1 2 3 1 0 2 4 4 4 2 3 3 3 1 1 2 2 1 3 1 2 1 1 2 3 1 3 3 4 4 2 3 3 1 4 6 3 3 6 8 7 8 9 11 11 9 8 9 9 9 10 10 10 10 7 5 8 7 3 3 4 6 9 6 6 8 11 12 13 11 11 10 8 7 8 7 9 14 15 13
0 2 2 2 2 2 4 3 2 3 4 2 1 2 4 4 3 2 2 1 3 1 2 2 4 3 3 2 1 1 2 2 1 2 3 3 5 5 3 2 2 2 4 5 2 2 5 7 7 8 10 12 11 9 8 9 8 8 9 8 8 9 6 4 5 8 8 8 7 9 8 3 6 8 10 11 11 9 9 9 7 8 8 7 12 15 14 13
1 1 1 1 2 4 3 3 3 4 3 1 1 2 2 4 3 4 2 2 1 3 2 2 5 3 2 2 2 1 2 4 5 4 4 4 4 3 2 2 1 2 5 5 2 2 3 3 3 5 9 10 10 8 8 9 7 7 7 5 7 7 6 6 3 6 9 9 9 12 8 2 5 9 10 10 10 8 7 9 9 8 7 8 13 10 12 12
4 2 2 1 4 2 1 3 2 3 3 2 1 3 4 4 3 4 3 2 2 1 1 1 3 2 2 2 3 1 3 4 6 6 6 6 4 3 2 2 4 5 5 4 2 3 4 4 3 5 8 8 7 7 8 9 9 8 4 4 6 5 4 3 1 2 5 8 11 11 6 2 7 10 10 11 11 9 7 9 10 7 5 6 8 3 10 10
4 1 3 3 2 1 1 3 3 3 1 1 2 3 3 3 4 3 2 2 0 1 2 1 1 2 3 2 1 3 4 6 7 7 6 6 6 5 3 3 4 5 4 4 3 3 4 5 5 4 6 6 5 5 7 10 10 7 2 2 3 2 0 3 4 3 1 4 7 7 4 5 8 10 12 13 12 11 8 8 9 8 7 6 6 5 9 9
Wind_Direction
317 315 315 314 312 311 310 309 309 309 307 305 304 304 305 311 316 318 319 317 323 329 325 326 326 326 330 330 331 333 331 332 323 301 280 279 299 308 292 294 180 173 159 157 164 162 161 184 163 226 252 224 313 14 334 320 299 278 268 261 314 78 73 33 22 55 283 114 111 134 179 205 165 159 149 163 180 156 161 170 146 148 143 77 99 122 142 158
312 311 310 309 308 307 308 308 308 307 304 304 302 303 303 305 311 315 316 314 318 324 323 323 323 325 328 328 332 333 331 328 306 285 277 277 280 270 264 231 176 173 161 166 176 163 142 205 191 220 276 331 75 4 320 316 301 306 312 306 47 44 64 82 59 66 10 67 98 134 172 204 175 153 159 186 174 163 172 165 166 153 132 123 126 136 148 159
308 308 306 305 305 303 304 305 305 303 303 303 302 303 301 300 307 313 314 311 312 317 319 320 322 325 326 328 331 335 335 317 285 276 281 285 279 249 233 227 188 174 172 185 189 153 43 292 190 241 297 344 55 28 346 357 312 332 319 352 61 32 66 114 116 98 69 68 120 125 153 211 165 149 168 207 185 177 199 170 174 169 147 143 141 146 154 164
305 304 304 303 303 301 302 300 299 300 300 301 302 302 301 300 303 309 312 307 305 309 315 318 320 324 326 328 330 338 331 291 267 74 43 339 309 229 213 214 198 177 183 214 188 172 303 16 153 295 287 2 59 37 21 30 322 340 337 5 51 5 67 120 134 125 106 105 160 122 179 212 153 179 191 212 207 190 209 183 185 177 152 150 151 154 161 167
303 303 303 301 301 299 298 297 298 298 299 300 301 301 301 300 299 304 309 304 302 306 313 316 318 324 326 325 332 338 312 271 95 67 0 347 322 220 194 197 192 175 186 200 179 194 220 4 310 289 297 22 41 54 42 36 303 328 36 26 31 336 44 119 149 145 134 133 190 173 202 247 143 207 210 217 231 197 127 162 179 166 154 157 159 160 165 170
302 302 301 300 298 297 297 297 298 298 299 299 299 300 299 299 296 300 305 304 299 304 313 315 319 325 326 325 331 326 289 298 59 344 338 346 308 201 180 184 182 175 192 195 191 210 210 275 289 305 335 37 29 29 37 31 307 341 65 47 23 349 36 114 172 171 187 194 191 171 216 270 244 227 214 225 243 351 44 116 155 153 156 159 159 163 170 172
301 300 300 299 297 297 296 297 297 297 298 298 299 299 297 296 293 294 301 304 301 306 310 312 323 325 330 327 319 288 262 310 21 331 336 346 218 176 173 176 179 180 196 201 205 218 216 266 299 332 328 51 25 21 31 24 317 345 36 42 37 26 37 122 179 192 217 219 169 264 244 247 255 254 241 237 242 251 60 135 145 147 154 158 161 166 172 174
303 299 300 299 298 297 296 296 296 296 297 298 298 297 295 293 289 292 300 304 300 302 305 315 330 327 337 329 300 264 240 348 0 331 345 28 149 162 164 171 184 187 200 210 216 234 242 283 337 335 327 36 11 7 16 358 214 353 15 36 40 189 163 145 172 190 221 235 235 250 243 244 251 260 260 249 242 179 142 147 148 151 155 162 166 169 172 176
307 302 300 299 300 298 297 298 297 298 298 297 297 296 294 290 286 289 296 301 294 296 305 317 327 325 340 317 284 269 148 27 359 352 31 70 149 157 159 171 188 192 207 214 223 245 257 322 8 347 332 4 355 359 358 342 37 3 3 30 311 199 187 184 179 189 220 232 238 243 233 238 241 251 250 237 234 163 157 161 156 157 160 166 169 170 174 177
310 305 302 302 301 299 299 299 299 299 297 297 297 296 293 286 280 284 290 292 285 292 300 310 328 326 323 284 269 264 78 44 23 36 53 88 142 152 163 180 187 196 212 209 222 250 288 330 360 339 311 323 337 350 354 351 7 346 339 344 254 213 197 208 197 194 215 224 229 243 239 234 228 236 231 198 198 176 168 168 163 165 166 167 168 171 177 179
312 307 305 304 301 301 300 299 300 298 298 299 298 296 291 281 272 276 282 284 280 284 290 307 316 303 299 271 265 305 79 61 33 38 57 97 133 151 168 183 185 200 212 198 222 258 294 323 337 305 295 336 321 329 18 2 345 326 322 284 224 213 215 213 215 200 209 221 215 244 258 242 222 232 237 180 178 180 175 171 169 172 167 166 168 170 178 182
314 310 306 304 302 301 299 299 299 299 300 298 296 295 288 279 267 265 262 254 257 258 259 277 205 62 288 258 256 304 53 335 332 10 54 92 131 149 157 174 184 199 210 217 228 248 275 301 301 288 325 334 310 328 12 349 324 307 304 288 228 199 216 204 211 203 214 217 170 237 260 233 214 219 225 193 178 178 177 174 171 172 169 168 168 170 179 184
314 311 307 304 302 301 300 300 301 303 304 299 297 292 285 275 245 229 210 214 224 219 210 230 166 135 271 258 239 279 290 290 291 299 303 130 134 137 140 161 178 197 222 256 270 254 264 272 281 292 321 312 320 358 312 297 299 276 268 294 269 175 152 159 187 192 207 186 140 227 263 239 213 204 199 188 180 179 179 177 174 173 173 170 168 175 181 183
313 310 308 307 306 304 303 302 305 307 306 303 296 284 273 227 200 179 171 179 173 187 176 164 144 177 260 270 96 276 297 304 266 247 190 166 142 133 143 156 172 187 214 257 289 281 268 264 266 273 277 288 321 320 271 248 266 288 267 269 290 63 103 127 167 182 186 158 158 224 274 305 254 190 183 188 181 182 186 181 177 178 177 171 170 179 182 185
315 314 312 312 310 306 303 303 304 305 303 300 286 257 210 182 163 151 156 151 158 169 136 136 170 218 257 243 152 289 310 287 207 190 172 172 164 150 151 159 162 161 182 209 223 251 258 246 246 263 266 260 282 279 270 258 244 300 292 259 335 352 81 118 150 190 194 164 176 209 273 262 228 170 181 190 183 187 194 186 181 184 182 174 174 181 184 186
320 317 315 312 308 303 302 302 302 302 294 272 229 179 159 148 137 136 135 139 150 136 123 177 199 240 278 125 121 241 239 167 161 167 178 186 187 151 144 148 146 153 175 182 207 216 222 236 246 284 287 256 262 273 283 272 227 244 302 322 349 335 349 98 149 190 208 187 188 209 264 273 186 154 183 188 189 196 198 193 188 188 185 179 178 183 186 185
320 316 313 308 305 302 300 303 303 297 260 191 159 147 135 129 128 121 120 136 136 129 169 279 231 244 273 109 152 156 124 93 101 133 169 180 176 147 148 151 146 154 166 164 190 204 205 227 238 247 248 250 268 279 272 262 258 282 306 316 321 324 327 341 134 166 196 220 219 218 242 272 256 176 183 187 195 202 201 199 194 190 188 186 184 186 187 187
319 316 312 308 308 304 303 307 298 253 176 150 141 133 121 119 117 112 118 126 126 154 220 244 246 248 206 179 190 90 77 55 106 128 157 166 170 169 170 168 147 169 193 186 186 201 200 205 231 248 242 238 242 247 253 273 305 308 309 310 312 315 312 324 5 77 207 235 246 233 240 265 261 206 194 195 195 204 207 204 200 194 190 189 191 191 190 191
320 317 314 314 315 307 308 307 260 173 150 139 129 119 113 113 113 125 158 164 180 214 183 176 213 292 87 127 80 32 348 291 210 198 171 163 171 185 192 191 199 217 226 203 180 192 211 211 222 246 247 238 248 272 282 298 309 307 303 301 303 303 301 324 346 4 273 263 250 248 256 270 268 224 203 201 195 203 209 205 204 201 193 192 197 197 194 196
320 319 319 322 319 308 306 284 187 160 151 139 128 130 132 140 156 157 178 205 233 286 351 164 224 286 9 99 37 337 289 187 204 189 171 173 180 190 198 205 224 228 237 235 175 172 220 236 228 241 255 271 307 309 296 297 301 296 293 285 283 292 297 311 335 73 240 279 276 270 272 277 276 254 212 203 199 201 205 204 203 204 201 197 200 201 197 199
322 323 323 324 318 306 293 210 167 162 158 144 149 207 286 340 280 96 161 206 219 250 263 271 287 283 292 318 321 321 242 180 175 162 164 178 191 198 185 201 232 220 216 244 237 150 220 244 245 252 271 291 295 296 295 291 288 286 285 282 284 293 293 294 319 109 179 264 298 296 283 278 269 258 225 202 204 205 204 204 202 202 203 202 203 203 200 199
322 324 324 325 323 318 171 166 157 161 161 152 179 254 357 13 344 1 315 216 158 209 239 242 268 271 269 267 272 279 248 187 148 148 158 176 196 203 166 191 234 225 174 212 240 225 220 242 249 251 269 275 272 275 277 279 280 278 274 274 280 285 284 276 135 137 184 242 306 306 292 286 270 256 232 203 207 212 207 206 204 202 202 204 204 202 201 200
320 324 326 333 354 105 137 148 150 160 166 170 227 268 26 343 288 288 286 278 113 154 214 211 241 249 220 217 185 210 233 193 151 152 163 184 192 204 192 195 229 244 198 216 240 247 242 251 253 261 272 264 261 259 263 272 269 261 261 268 270 273 285 287 127 156 213 233 291 302 291 286 273 246 228 211 210 214 213 211 207 205 205 205 205 203 201 198
319 321 334 31 111 121 130 138 146 164 174 197 254 269 320 304 266 249 272 279 110 124 175 179 250 256 175 91 167 207 234 276 183 146 162 193 177 170 217 217 230 237 223 235 254 266 277 323 55 277 259 261 269 262 255 261 260 255 257 264 272 280 297 311 315 296 259 231 248 285 286 277 254 216 213 203 204 211 213 214 211 209 209 207 207 208 206 201
311 308 85 128 134 125 122 129 144 170 184 207 245 257 296 306 249 226 259 251 121 112 154 163 204 176 91 112 169 227 265 199 218 132 163 203 188 158 205 229 247 238 162 242 258 265 281 331 273 255 250 251 263 264 258 258 265 261 250 254 284 298 305 308 304 301 282 245 207 267 291 278 219 247 206 165 192 207 206 212 215 211 208 208 209 209 209 206
292 226 154 157 158 146 127 113 145 171 190 198 234 295 299 301 217 202 254 217 129 106 162 167 183 138 125 171 172 247 251 167 80 119 169 199 209 234 246 171 225 298 54 268 260 261 295 16 250 260 261 250 249 255 255 253 263 263 240 262 296 298 302 302 300 292 284 286 237 249 287 286 254 266 211 155 195 204 200 211 215 212 209 208 208 206 206 208
251 184 170 166 166 165 142 93 151 176 188 144 5 320 301 250 180 178 247 190 126 86 167 135 86 121 109 133 190 243 259 113 107 143 173 198 188 228 256 189 191 240 182 268 257 171 188 289 233 249 258 250 248 251 237 227 253 265 310 317 291 296 304 303 295 279 269 281 260 239 265 278 267 265 174 175 211 204 204 213 213 213 211 210 210 205 203 206
218 184 180 174 177 185 162 130 174 203 78 60 344 317 278 191 173 199 256 177 104 298 182 103 83 147 162 196 220 255 320 3 188 137 147 196 194 212 244 243 273 238 189 257 281 102 131 283 283 268 262 250 253 270 263 246 256 268 303 308 296 298 301 300 290 276 269 273 261 227 235 274 270 242 177 200 243 230 214 213 213 216 213 211 212 207 203 203
206 190 188 184 189 202 182 174 220 221 70 25 345 344 173 187 193 244 259 116 96 202 106 107 142 158 189 199 207 248 273 260 285 101 141 185 207 245 267 264 285 272 213 245 277 347 335 301 305 286 271 267 276 285 280 263 258 274 299 290 278 277 288 294 285 278 266 259 261 253 275 291 280 271 233 217 258 271 241 209 207 214 215 212 211 209 205 200
202 194 188 184 187 201 211 219 220 178 65 3 0 87 180 199 224 239 221 134 95 134 105 166 181 169 215 217 194 188 226 212 85 131 163 174 196 219 277 309 268 264 237 237 255 275 274 228 266 267 264 282 295 290 273 261 264 277 282 271 261 251 265 282 278 279 269 257 254 263 289 283 275 278 258 227 284 299 296 269 206 207 210 212 212 210 205 198
200 196 186 182 176 186 212 214 175 164 30 1 6 200 213 221 248 243 206 98 111 142 155 157 139 151 202 232 201 149 193 171 135 187 189 172 187 199 220 220 228 247 243 230 227 248 238 203 190 232 251 280 284 269 255 245 257 266 263 264 261 244 236 254 250 232 256 260 239 230 255 254 257 261 259 296 312 305 303 315 321 266 208 206 212 211 206 201
202 200 194 197 191 192 216 114 143 169 350 348 287 238 231 213 219 239 98 162 197 125 141 105 86 117 152 181 76 102 193 163 154 217 219 206 197 189 240 255 285 265 254 243 212 262 238 184 127 148 173 254 276 262 229 210 222 234 240 253 259 255 248 248 247 244 256 259 243 264 264 255 259 258 259 282 295 316 336 324 322 322 272 211 211 213 208 205
203 205 205 211 212 210 223 229 195 230 305 292 259 249 246 223 206 120 98 178 63 64 88 85 93 110 197 194 103 91 194 134 151 208 211 244 226 152 122 359 329 280 283 317 305 290 270 150 161 181 157 186 279 291 270 226 229 233 240 251 251 258 263 261 258 259 264 259 239 271 281 265 257 239 228 259 292 342 348 330 322 318 298 252 220 214 208 206
203 207 213 220 230 229 229 234 227 238 266 258 250 229 229 224 158 75 144 126 68 100 136 146 160 153 170 151 63 40 202 103 128 203 191 216 226 191 149 97 4 275 273 286 285 291 290 247 173 179 93 127 292 317 328 328 300 273 289 281 265 264 266 272 275 267 269 264 224 205 270 264 259 339 253 279 334 358 356 346 337 327 310 268 223 207 205 205
202 211 223 233 246 248 241 237 220 214 245 252 246 224 219 210 119 144 152 98 110 157 145 176 228 213 161 119 88 16 324 71 139 200 210 226 234 216 135 76 40 323 279 274 287 293 279 277 100 65 17 316 307 332 320 302 284 280 304 272 263 269 267 272 282 283 288 280 247 217 248 262 280 302 285 320 18 4 350 345 334 343 0 314 207 188 196 200
176 189 221 238 266 263 240 230 209 206 240 247 236 225 201 43 59 122 81 63 145 160 166 187 222 239 204 157 146 134 358 315 178 194 188 143 70 60 30 42 39 355 319 294 303 302 277 271 105 107 197 169 321 327 287 278 290 305 273 268 290 297 278 276 273 275 278 273 264 246 244 251 260 267 262 7 17 357 344 337 331 356 10 355 152 174 190 191
155 157 151 95 302 247 227 205 188 194 233 253 251 238 82 49 31 47 51 30 96 337 237 213 195 259 241 200 164 130 146 199 190 222 196 157 128 52 31 53 46 360 354 324 296 359 302 286 227 229 244 138 15 300 261 245 272 284 276 311 337 296 263 268 261 259 257 257 263 256 253 254 250 254 275 340 353 351 339 334 346 9 14 27 79 123 179 188
184 188 121 53 352 225 191 172 177 198 242 247 199 81 70 80 59 37 34 9 269 229 242 241 148 271 261 244 164 96 297 228 168 226 237 184 168 25 358 60 73 17 5 312 280 64 314 282 262 175 251 305 292 274 260 224 224 266 299 323 306 271 259 259 257 264 263 262 265 258 255 257 257 296 328 333 342 344 338 343 357 12 15 19 58 100 146 177
220 202 118 24 322 182 158 160 181 228 243 224 161 117 99 89 80 51 38 357 303 248 243 267 351 237 242 277 295 95 303 298 307 234 252 214 156 47 10 355 35 10 3 309 293 356 303 277 274 161 183 316 285 257 263 232 201 229 281 273 257 273 277 266 265 270 265 265 270 266 261 251 138 12 340 335 342 344 343 348 353 7 20 23 32 55 114 161
231 211 85 19 160 151 148 175 214 240 228 223 108 121 119 100 92 74 58 333 319 330 303 258 234 231 181 259 289 8 309 307 306 270 254 190 169 92 51 10 332 338 345 289 281 307 271 256 274 264 256 287 273 260 288 301 267 247 265 263 255 265 273 275 271 259 256 263 266 266 263 256 65 31 347 340 344 346 345 346 352 8 22 30 28 21 23 88
237 203 78 67 163 152 178 230 221 228 210 123 99 120 120 100 103 99 86 68 52 24 2 37 49 266 153 219 239 9 282 255 261 272 246 193 218 143 55 21 335 328 309 267 258 305 297 271 274 282 282 274 281 307 329 313 296 286 281 277 273 272 273 274 262 244 243 258 262 266 261 217 66 18 356 354 348 348 346 345 355 13 25 29 27 15 10 20
243 163 72 153 173 183 260 233 163 237 203 115 99 106 108 103 107 107 97 85 91 69 43 65 39 32 72 299 14 63 277 258 258 270 241 201 324 47 45 18 336 313 292 282 301 42 326 290 274 277 279 282 289 296 295 283 279 277 271 269 275 276 267 264 266 263 259 260 268 279 271 197 77 10 3 14 6 356 351 350 354 14 30 26 20 12 8 11
220 100 86 171 184 229 271 190 150 204 132 104 98 96 100 116 116 119 113 69 75 89 104 98 36 18 66 356 333 246 286 278 246 278 262 192 80 63 35 4 339 296 273 280 292 71 296 272 274 279 278 274 266 257 250 251 258 257 252 256 274 280 277 281 290 293 275 269 278 284 269 203 93 5 357 15 38 14 357 359 356 14 31 22 15 14 6 3
97 97 112 176 203 244 270 191 168 163 123 128 133 114 97 77 61 78 92 50 36 72 106 92 54 26 65 25 324 338 334 284 219 266 294 228 97 68 23 360 341 302 300 336 1 11 292 270 287 289 285 271 242 223 204 207 241 265 270 275 284 285 287 298 313 291 262 263 257 252 253 163 80 5 354 2 30 24 4 3 359 16 32 20 13 17 6 2
133 124 114 150 201 232 276 332 216 155 139 147 139 127 121 97 54 42 74 68 47 41 63 87 70 32 86 127 245 123 352 299 274 97 252 238 114 88 11 358 331 304 23 12 335 304 282 286 294 287 290 296 289 292 301 271 289 299 280 272 275 280 284 298 330 266 256 278 281 264 274 335 34 3 358 0 12 10 3 4 0 16 30 16 10 17 7 359
183 164 134 146 176 205 185 17 263 169 152 159 144 138 153 128 105 66 62 72 71 61 56 88 107 242 190 209 229 183 122 303 299 290 265 271 77 71 345 335 310 335 10 335 279 271 272 273 269 265 275 289 303 315 317 302 294 288 279 275 274 280 285 278 241 241 252 350 324 272 283 295 341 11 359 359 6 359 356 2 357 8 23 14 15 16 0 350
249 188 123 147 151 157 144 148 196 166 146 173 163 155 171 143 137 125 46 52 86 81 70 76 63 246 169 223 227 181 46 257 244 291 299 297 310 320 300 272 208 6 325 272 241 261 269 262 256 250 255 269 285 295 294 286 285 285 285 283 281 285 289 270 266 294 19 40 244 258 285 304 6 16 356 357 1 352 351 357 351 0 12 3 16 17 357 344
304 76 33 333 263 148 133 128 140 141 142 161 199 181 182 166 161 142 85 97 123 169 254 121 109 78 70 29 245 150 355 230 192 291 319 305 310 314 281 233 181 185 279 260 239 260 266 269 271 260 261 272 277 279 281 280 283 285 281 280 284 286 286 270 271 283 295 265 264 278 292 320 22 10 355 358 353 345 347 346 348 10 7 354 18 17 354 337
115 122 72 320 310 80 84 90 140 156 135 115 142 189 199 189 171 107 75 151 153 139 287 174 126 105 84 58 320 13 13 317 274 345 337 316 309 308 299 257 183 189 270 274 265 261 264 267 270 270 276 278 272 269 271 271 278 284 277 284 300 299 318 354 316 303 296 284 291 298 296 357 35 5 3 1 346 346 350 342 2 25 8 10 31 14 338 321
11 73 75 182 113 83 92 128 179 178 141 148 188 161 196 205 172 126 101 291 182 134 227 187 131 123 97 71 315 339 42 341 314 319 320 306 300 307 315 319 317 305 296 287 255 204 240 264 278 277 275 269 260 258 261 266 278 280 276 317 349 340 6 32 353 319 314 298 290 288 287 345 356 346 10 10 351 1 358 345 10 22 357 25 45 8 311 307
344 350 315 238 116 87 164 143 185 209 169 195 189 149 183 196 163 144 126 6 339 86 149 163 137 157 183 206 269 332 37 327 298 297 295 289 295 315 326 323 319 310 298 291 265 213 235 268 271 258 265 266 256 250 260 274 276 261 256 15 9 352 24 59 146 300 316 306 295 286 283 323 318 335 14 15 359 4 358 349 4 3 342 41 66 326 291 312
336 306 293 275 137 135 222 152 186 235 165 80 107 144 187 168 150 184 170 124 184 31 46 7 282 245 232 225 336 13 354 313 297 296 288 275 275 281 283 288 302 305 304 305 289 250 260 281 274 258 267 274 265 260 274 280 271 251 201 45 344 315 227 183 177 170 245 305 298 285 296 332 326 347 11 8 356 352 346 348 350 338 338 25 40 324 311 331